Wind_Speed
8 8 8 6 3 7 16 14 16 18 12 10 12 7 17 14 12 14 20 21 18 17 15 13 14 15 15 15 16 16 15 15 15 15 14 14 14 14 14 15 15 15 16 16 16 16 15 15 15
7 4 9 5 3 11 12 14 13 11 12 11 12 12 19 18 19 20 21 20 18 18 16 14 15 16 16 16 15 15 14 14 15 14 15 13 13 14 15 14 15 15 15 15 14 13 12 12 12
7 7 5 3 5 13 11 17 15 16 13 11 13 15 10 18 17 19 25 21 19 17 16 14 15 16 15 15 15 14 14 14 14 13 13 13 13 13 13 14 14 14 14 13 12 11 10 10 9
7 7 6 2 10 20 12 15 18 15 11 15 17 14 19 17 18 26 22 21 21 18 16 15 15 15 15 15 14 14 14 14 13 12 10 14 13 12 12 13 13 13 13 12 11 10 10 9 9
10 2 3 8 16 16 15 15 14 12 11 11 16 19 20 11 23 23 20 20 19 20 16 15 15 15 14 15 14 15 14 14 13 12 15 13 13 13 13 13 14 13 12 12 11 10 11 11 11
6 2 0 11 15 13 11 9 12 11 12 10 20 22 13 19 24 22 20 18 21 21 17 15 16 14 14 14 14 14 13 13 12 14 15 14 14 14 14 14 13 12 11 11 10 11 12 10 11
7 8 11 15 15 12 13 7 10 13 11 14 20 15 15 22 22 21 18 20 17 19 18 15 14 14 14 13 13 13 13 12 12 14 15 17 18 18 17 15 13 11 9 8 9 9 11 11 10
5 2 12 10 12 13 8 11 9 12 15 14 16 10 21 23 23 21 17 19 16 18 16 18 15 14 13 12 11 11 12 12 14 15 16 19 19 17 14 13 9 8 7 7 7 8 8 11 11
5 3 8 14 13 13 12 12 11 14 13 9 5 23 24 26 23 21 18 17 16 15 16 17 14 18 10 11 8 11 12 14 13 10 7 5 9 13 11 6 7 6 6 7 8 9 8 6 13
4 8 13 13 15 12 11 14 16 13 12 15 21 24 26 23 21 20 19 19 17 19 16 15 15 12 9 15 8 10 9 10 9 6 6 12 11 9 12 11 14 10 9 11 11 8 5 2 9
6 12 13 7 15 13 14 15 11 15 14 15 20 22 22 22 22 21 18 17 19 16 20 17 15 10 9 11 11 11 10 10 9 5 9 7 7 5 9 8 6 6 8 3 1 6 1 8 7
4 9 13 12 13 12 14 13 11 6 15 18 19 20 19 16 15 14 14 22 15 18 17 10 15 8 9 9 7 7 9 8 11 8 4 3 9 7 8 7 7 6 9 6 9 10 6 6 6
6 13 14 14 11 14 10 11 10 10 16 19 20 18 17 15 14 12 7 9 17 17 19 13 15 8 8 4 6 5 9 8 8 8 4 5 8 5 5 5 7 7 6 7 7 7 6 2 6
3 12 16 10 14 10 14 11 9 12 18 19 17 16 15 13 14 14 15 15 14 16 21 13 15 12 10 7 7 7 5 5 5 5 7 2 6 2 1 2 4 6 5 6 6 5 6 5 5
17 15 15 12 11 10 13 14 11 16 16 18 16 14 12 12 13 13 12 22 15 15 19 16 15 13 11 9 9 5 7 8 6 4 3 1 4 4 4 4 4 5 5 3 2 7 3 5 6
8 9 10 15 11 8 10 12 15 16 18 16 15 13 13 12 14 13 13 11 20 14 17 17 17 14 11 10 8 7 5 4 5 5 6 4 1 2 5 4 3 4 9 5 4 5 6 6 8
9 5 12 13 12 10 13 15 16 17 16 16 14 13 13 14 13 11 11 13 15 19 19 20 15 14 12 10 8 6 5 4 5 5 6 6 4 4 5 6 6 7 8 6 6 5 8 9 8
5 12 8 15 14 14 11 17 16 17 17 16 15 14 14 14 14 14 14 14 16 16 17 16 15 13 12 9 7 6 6 6 6 4 6 5 5 3 5 7 6 7 8 7 6 6 10 10 13
2 13 4 20 13 15 12 16 18 18 17 16 16 13 14 15 19 16 14 14 15 16 18 18 16 13 13 11 10 8 9 7 6 9 7 3 6 6 5 8 7 6 6 4 7 8 9 11 10
6 7 5 6 14 10 18 18 17 16 15 16 15 16 16 16 16 17 15 15 17 16 16 17 17 15 13 11 9 6 4 5 5 1 2 8 9 7 9 8 7 7 8 7 7 8 10 12 11
11 11 6 5 10 19 15 10 18 17 14 14 15 14 16 16 16 17 17 16 15 17 16 17 17 16 15 12 8 7 5 8 8 8 9 12 10 9 9 10 11 10 9 11 7 8 9 12 11
17 7 7 15 15 1 10 1 7 17 16 15 14 15 14 17 17 15 19 18 18 17 18 16 16 16 15 15 13 8 8 10 5 10 4 5 3 8 11 13 12 12 13 15 11 13 13 10 13
7 4 9 11 12 9 7 11 11 22 17 18 17 15 16 15 18 17 19 21 17 17 20 19 17 16 14 13 14 13 12 11 13 7 7 3 7 11 11 11 14 14 14 16 14 15 13 15 16
3 6 5 9 12 13 11 11 10 11 15 18 16 17 13 14 13 15 19 20 18 11 7 15 18 15 13 11 6 9 10 12 18 11 12 9 11 12 18 10 10 12 15 17 18 18 18 19 19
11 14 9 11 10 10 4 6 12 13 6 3 6 18 18 12 15 12 9 12 10 7 3 2 13 6 4 4 1 4 5 7 12 14 13 12 15 14 14 12 11 14 16 18 18 19 20 20 22
16 18 13 12 12 7 10 8 10 11 7 4 7 10 19 20 14 14 16 14 11 18 14 13 16 15 11 12 15 9 10 8 7 7 8 9 10 11 10 11 14 16 18 21 22 22 22 23 23
15 17 17 15 16 10 8 10 10 12 8 5 7 11 14 18 5 13 26 25 21 16 17 19 16 18 16 18 14 17 11 11 8 8 6 5 6 8 9 13 15 16 16 17 19 21 23 23 23
16 8 14 10 16 17 14 10 10 14 13 11 7 18 18 21 21 12 21 21 19 16 17 17 15 15 13 5 4 5 7 9 9 8 8 9 11 12 16 18 17 18 18 18 18 18 19 21 23
13 15 15 16 13 9 10 3 11 13 14 14 12 13 14 16 14 11 17 19 14 13 14 15 15 14 13 13 10 5 8 9 11 10 11 11 14 16 19 20 20 21 21 21 20 20 20 22 24
10 10 17 14 16 12 11 2 8 11 19 18 14 13 12 11 11 9 14 16 12 12 11 11 10 11 11 12 12 7 9 12 13 14 15 17 19 19 22 23 24 24 24 24 23 22 23 23 23
Wind_Direction
213 233 263 265 257 122 94 110 120 120 109 97 71 75 77 35 11 99 138 130 128 119 116 106 111 105 103 99 98 96 92 90 90 88 89 90 91 88 89 88 88 88 88 88 89 88 85 87 85
232 226 232 272 151 102 116 114 101 92 117 109 107 108 63 68 90 120 120 129 121 113 114 111 111 104 97 98 96 93 89 90 87 91 91 92 90 90 92 93 96 93 90 89 89 85 81 81 86
238 251 265 215 104 105 122 122 122 117 127 111 84 49 50 110 113 117 128 126 127 124 117 113 105 100 100 99 98 93 93 89 87 88 90 91 93 93 93 97 98 94 94 92 86 80 76 79 85
259 203 225 184 106 118 125 111 115 133 109 96 107 83 105 92 104 124 134 131 114 120 114 114 106 105 97 94 94 94 92 91 87 83 90 94 94 96 98 101 102 101 98 91 82 72 70 77 97
247 211 130 88 98 93 98 120 132 131 122 122 103 111 117 95 119 131 134 123 132 130 121 114 107 101 102 96 97 95 94 88 86 81 83 104 95 99 101 106 104 101 95 88 78 72 73 85 99
235 356 293 104 103 104 109 133 131 120 112 108 110 125 111 128 136 137 136 140 137 124 122 119 107 108 102 98 100 99 94 89 88 84 86 90 96 101 105 105 102 99 93 84 75 74 75 89 89
124 195 117 108 117 103 85 137 118 118 129 116 133 124 131 145 142 140 142 136 132 132 127 123 112 110 107 104 99 101 98 97 94 93 95 94 94 96 96 98 99 95 86 77 72 73 75 77 82
287 341 122 112 112 107 113 87 119 126 94 97 129 136 151 145 148 143 149 134 137 137 134 125 129 121 122 103 107 104 103 102 97 99 106 102 86 82 84 80 86 86 79 73 67 66 76 77 71
253 250 92 104 113 114 130 112 80 102 130 135 87 141 135 146 149 150 152 148 144 137 141 137 124 126 143 124 109 100 106 100 94 75 90 140 133 107 90 92 73 74 73 68 61 68 76 104 90
257 98 83 81 116 126 124 114 129 126 124 125 121 118 138 149 158 158 164 157 161 149 150 128 135 144 163 117 125 130 155 118 93 80 75 93 94 84 92 83 72 70 79 76 61 55 62 235 184
309 83 96 117 111 121 116 132 145 130 133 128 134 138 150 159 164 170 176 162 164 161 150 151 154 182 145 118 140 153 131 129 120 99 61 52 92 85 118 87 91 86 54 111 78 41 18 51 42
105 108 105 121 117 119 97 136 108 147 115 130 137 146 153 162 164 168 172 162 168 169 149 170 149 158 110 131 161 139 136 142 154 113 113 142 120 81 77 67 101 77 79 54 32 56 32 46 76
134 111 116 99 110 96 114 103 92 97 119 130 139 151 160 168 163 165 124 137 161 180 152 153 147 156 135 159 131 164 133 187 101 142 80 53 95 62 76 63 72 53 53 58 40 36 37 316 91
125 106 113 145 108 130 116 135 112 136 132 134 148 158 168 151 164 142 158 148 177 184 151 155 148 154 153 129 145 153 180 116 204 154 110 75 40 5 69 145 82 75 46 30 32 6 11 356 47
154 141 138 135 148 141 146 113 111 139 138 145 152 158 154 154 153 159 157 150 171 176 166 171 169 167 162 154 155 172 165 180 169 175 143 95 5 44 321 68 324 32 344 329 18 329 340 4 348
149 165 154 145 160 151 74 119 133 144 150 153 148 144 153 155 158 158 146 170 156 173 148 168 177 169 168 164 166 170 155 169 202 205 188 196 260 341 306 288 354 15 305 308 332 341 337 15 340
112 163 209 148 193 151 132 133 145 156 157 158 155 152 154 152 148 147 155 160 159 170 165 172 181 172 172 175 179 185 178 204 196 206 221 169 253 283 299 288 331 344 299 299 311 347 338 329 312
280 190 148 138 176 169 195 123 159 171 166 163 164 162 160 159 150 158 158 148 160 159 171 177 181 174 179 182 197 205 202 214 220 209 217 183 240 239 300 289 291 308 292 288 3 345 312 300 304
321 182 51 160 146 200 147 145 161 172 172 168 167 170 169 168 151 153 153 148 153 163 171 180 183 185 188 194 199 205 223 233 243 214 221 190 221 251 257 279 281 303 282 317 307 287 291 297 304
257 212 158 139 173 224 148 154 159 174 175 170 179 168 170 162 154 163 166 160 161 166 177 184 189 191 198 203 218 258 294 304 284 219 213 219 227 248 256 256 269 293 293 279 269 279 296 282 281
232 250 186 101 197 97 302 157 155 171 169 164 181 173 179 168 167 165 169 179 180 167 181 188 196 200 203 220 219 228 257 295 263 282 234 228 217 239 256 262 264 286 277 275 254 268 277 284 291
271 147 297 154 223 347 214 174 328 168 171 165 181 175 192 171 177 173 173 187 192 185 185 191 196 203 210 216 229 229 222 253 247 284 300 278 301 287 277 270 263 262 273 294 283 265 254 260 275
44 220 219 234 152 213 237 232 178 215 176 174 182 180 189 189 176 179 188 186 200 190 192 190 196 201 214 212 228 235 233 275 292 304 332 239 298 272 256 261 263 263 262 264 272 283 279 277 269
98 200 251 276 276 233 192 245 171 162 179 172 190 169 195 189 197 186 183 176 182 180 185 182 177 199 203 215 240 252 278 280 283 284 298 305 284 290 293 250 255 267 270 270 269 266 263 260 267
237 222 219 220 225 245 184 197 100 112 65 85 186 173 183 205 198 178 151 162 148 155 165 80 124 156 128 94 339 286 259 259 279 304 311 305 300 312 304 315 299 282 275 272 269 264 263 263 261
231 253 251 245 243 246 118 223 120 118 139 205 247 262 174 184 195 188 191 190 160 138 123 113 99 118 108 71 62 37 38 6 341 8 356 344 344 348 334 329 315 303 290 284 279 273 264 256 253
229 228 268 298 295 277 243 107 126 152 128 209 210 208 234 166 100 93 77 70 89 100 97 85 93 100 107 94 69 41 16 26 2 351 346 353 336 332 325 313 312 311 305 299 287 279 274 271 266
266 303 239 234 262 274 280 243 139 164 143 88 58 65 71 69 78 64 69 80 89 100 106 99 94 89 81 72 298 305 358 2 335 327 325 330 317 332 308 305 304 304 304 303 299 290 282 277 269
199 244 251 288 290 288 261 96 74 123 131 134 99 72 67 77 85 87 97 94 95 91 87 89 81 71 63 65 58 26 338 336 324 319 328 319 324 307 298 294 296 295 296 296 295 289 286 281 278
298 251 229 231 238 258 274 56 99 116 118 110 106 99 82 67 65 74 96 107 111 95 70 75 71 67 50 38 36 336 343 341 329 333 329 321 313 305 299 301 297 291 288 285 284 284 285 284 278
Height
764 763 764 761 780 766 779 783 768 773 772 760 761 769 777 779 780 810 808 813 818 821 825 827 828 828 830 830 830 831 831 832 831 832 833 833 833 833 833 833 834 834 834 835 835 836 836 836 836
763 764 762 747 767 784 787 767 773 770 763 761 763 765 778 794 787 798 808 814 819 822 826 829 830 830 831 832 833 833 835 835 835 834 835 836 836 836 835 836 836 837 837 838 838 838 838 838 838
763 762 758 768 757 779 786 765 766 761 760 763 770 770 781 798 796 800 811 817 821 825 828 831 832 833 834 835 835 836 837 837 837 837 838 838 838 839 838 839 839 840 840 840 840 840 840 839 839
759 751 743 759 774 759 762 756 758 764 762 761 769 794 790 796 799 808 814 817 824 827 830 833 834 835 836 837 838 839 839 840 840 840 840 840 840 841 841 841 841 842 842 842 842 842 840 840 839
756 750 766 767 764 753 750 751 755 767 765 768 769 795 799 801 805 812 816 821 826 829 833 835 836 838 839 841 841 842 842 843 843 843 842 842 842 842 843 843 843 844 844 844 844 843 842 841 840
749 752 778 781 770 759 754 749 753 759 763 772 780 793 800 806 810 815 818 822 825 829 833 837 838 840 842 843 843 844 845 845 846 846 845 844 844 844 845 845 846 846 846 846 845 845 844 843 842
763 769 765 764 769 769 763 752 758 765 770 778 779 796 802 806 811 815 819 823 827 830 834 838 840 842 844 845 846 847 847 848 848 847 847 847 846 846 847 847 848 848 848 848 847 846 845 844 844
742 741 761 764 771 780 763 758 755 761 774 769 777 799 805 804 811 816 820 823 828 832 835 838 841 843 843 846 847 848 849 850 850 849 848 847 848 849 849 849 850 849 848 848 848 846 846 845 845
745 768 768 762 768 774 759 767 760 765 775 774 773 785 795 806 811 816 820 824 828 833 836 837 840 842 845 847 850 850 851 851 852 851 849 848 849 850 852 851 850 849 848 848 847 845 845 845 845
756 757 761 748 754 764 760 764 769 774 779 782 782 790 802 807 812 815 818 822 826 830 836 837 841 842 843 846 850 851 851 851 853 853 852 851 853 852 852 852 850 849 848 847 846 845 844 843 844
746 760 751 750 751 753 762 765 762 773 786 785 792 797 803 806 811 813 817 820 824 828 833 838 841 842 842 845 848 849 850 853 856 856 854 853 853 851 850 851 850 850 848 848 846 846 843 844 842
754 745 747 754 750 757 767 762 769 765 776 779 790 798 802 804 806 809 811 821 825 827 832 838 841 843 843 848 847 849 850 852 853 856 856 855 853 853 853 852 853 851 852 851 848 848 849 847 847
750 747 747 750 753 761 763 771 778 777 776 784 792 799 802 802 806 810 815 821 826 828 832 839 843 846 848 849 851 851 852 850 853 855 857 855 855 856 855 856 853 853 853 853 852 851 850 847 845
751 745 752 756 761 763 774 777 778 779 780 788 795 797 798 800 805 811 818 825 827 830 833 841 844 848 850 851 854 854 852 853 854 854 857 859 856 859 856 855 853 854 856 855 855 853 850 846 843
744 759 757 761 763 769 765 780 788 777 782 792 794 796 799 803 807 811 815 822 828 830 832 841 844 848 850 852 853 853 855 853 855 854 858 860 859 860 857 855 854 855 856 855 854 852 850 847 845
761 757 777 764 763 766 785 802 784 779 786 792 793 796 800 803 808 811 817 821 827 831 834 840 842 846 850 852 853 852 853 854 854 855 856 859 860 860 859 855 855 858 857 854 854 852 851 849 848
769 801 803 774 754 766 788 792 781 778 783 790 792 797 799 803 807 813 817 820 825 830 833 840 841 845 849 852 853 854 855 854 853 854 855 856 859 859 860 857 856 859 857 855 854 853 854 851 850
779 774 763 772 759 761 763 775 778 776 777 785 788 792 796 800 806 812 815 818 825 829 834 838 842 844 848 851 853 852 852 853 852 853 852 855 856 858 859 857 857 858 856 854 854 856 856 854 849
750 771 773 770 748 754 757 771 776 773 773 782 784 791 792 796 803 810 814 819 824 830 834 838 842 845 848 850 851 850 849 850 850 851 852 853 856 856 857 856 854 855 854 854 855 855 853 851 848
748 760 760 751 745 753 755 773 768 770 771 776 780 783 788 792 800 808 812 816 821 828 832 837 840 844 847 848 849 848 849 849 849 849 851 851 853 854 855 855 854 854 853 852 853 853 852 849 847
746 752 758 759 750 777 796 783 774 766 766 773 774 778 780 788 798 803 809 813 817 824 830 834 838 842 845 846 848 850 851 850 848 847 847 847 850 852 853 853 854 853 853 850 849 850 849 848 846
751 732 742 749 756 784 761 839 812 769 771 776 775 779 779 782 791 798 805 810 814 818 825 830 835 839 842 844 845 847 849 848 845 844 843 845 847 850 850 851 850 851 850 848 848 847 847 846 845
754 736 742 742 761 774 771 779 793 767 772 774 772 776 776 778 782 793 798 804 809 813 819 824 831 836 839 842 844 844 846 844 843 845 845 839 844 847 847 848 848 848 847 846 846 845 845 844 843
736 748 749 745 747 775 748 758 774 766 766 766 765 770 775 777 780 784 790 800 806 810 814 817 824 832 835 838 842 845 845 845 840 846 846 838 841 843 845 843 844 845 845 844 844 843 842 842 840
749 755 782 788 781 779 734 761 773 765 766 761 762 762 774 781 780 783 791 798 805 813 819 821 822 833 837 840 843 845 845 846 843 840 840 842 843 843 842 841 842 842 842 840 840 838 837 837 837
759 752 767 795 777 763 746 775 773 764 771 769 770 763 763 776 780 786 794 798 808 815 822 826 828 835 839 842 841 845 845 845 845 845 845 845 845 844 844 842 841 839 838 836 836 835 832 831 830
752 763 737 756 745 763 748 768 768 764 770 772 769 771 768 768 782 789 800 810 815 822 826 830 833 835 838 838 846 845 847 846 849 849 847 844 845 845 845 844 840 838 837 833 831 829 828 828 827
748 735 768 764 798 799 766 758 765 773 775 778 778 779 793 799 801 814 814 820 824 832 832 835 839 840 839 837 838 845 849 847 850 849 847 844 845 841 845 844 840 836 834 832 829 825 824 823 821
757 763 754 749 752 775 780 771 748 761 768 788 802 814 818 815 817 822 827 831 837 839 839 839 839 842 844 842 844 847 849 847 849 849 845 844 840 841 843 841 837 834 831 829 826 823 821 818 816
739 744 746 766 777 760 764 774 757 765 774 801 813 822 827 830 830 833 834 837 841 842 844 844 845 844 845 846 844 852 848 846 847 845 843 842 842 841 840 835 832 829 827 824 822 818 816 813 811